Weather History for College Park, MD

Change the Weather History Date:

Thursday, February 13, 2014

  Actual Average Record
Temperature  
Mean Temperature 32 °F -  
Max Temperature 38 °F 43 °F 72 °F (1951)
Min Temperature 26 °F 24 °F -1 °F (1983)
Degree Days  
Heating Degree Days 33    
Moisture  
Dew Point 33 °F    
Average Humidity 95    
Maximum Humidity 99    
Minimum Humidity 82    
Precipitation  
Precipitation 0.00 in - - ()
Sea Level Pressure  
Sea Level Pressure 29.59 in    
Wind  
Wind Speed 8 mph (North)    
Max Wind Speed 15 mph    
Max Gust Speed 25 mph    
Visibility 3 miles    
Events      
Averages and records for this station are not official NWS values.
T = Trace of Precipitation, MM = Missing Value Source: NWS Daily Summary

Daily Weather History Graph

Daily Weather History Graph

Search for Another Location

Airport:

Trip Planner

Search our weather history database for the weather conditions in past years. The results will help you decide how hot, cold, wet, or windy it might be!

Date:

Astronomy

Feb. 13, 2014 Rise Set
Actual Time 7:01 AM EST 5:42 PM EST
Civil Twilight 6:34 AM EST 6:10 PM EST
Nautical Twilight 6:02 AM EST 6:41 PM EST
Astronomical Twilight 5:31 AM EST 7:12 PM EST
Moon 4:49 PM EST (2/13) 5:53 AM EST (2/13)
Length of Visible Light 11h 36m
Length of Day
10h 41m
Waxing Gibbous, 98% of the Moon is Illuminated
Feb 13
Waxing Gibbous
Feb 14
Full
Feb 22
Last Quarter
Mar 1
New
Mar 8
First Quarter

Hourly Weather History & Observations

Time (EST) Temp. Windchill Dew Point Humidity Pressure Visibility Wind Dir Wind Speed Gust Speed Precip Events Conditions
12:00 AM 26.1 °F 17.6 °F 23.9 °F 92% 30.14 in 1.5 mi NNE 8.1 mph - N/A   Overcast
12:20 AM 26.1 °F 17.6 °F 23.9 °F 92% 30.12 in 1.2 mi NNE 8.1 mph - N/A   Mostly Cloudy
12:40 AM 26.1 °F 17.6 °F 24.3 °F 93% 30.10 in 1.2 mi NNE 8.1 mph - N/A   Overcast
1:00 AM 26.4 °F 19.8 °F 24.4 °F 92% 30.10 in 2.5 mi NNE 5.8 mph - N/A   Overcast
1:20 AM 26.6 °F 19.1 °F 24.6 °F 92% 30.08 in 3.0 mi NNE 6.9 mph - N/A   Overcast
1:40 AM 27.0 °F 19.5 °F 25.2 °F 93% 30.07 in 1.2 mi North 6.9 mph - N/A   Mostly Cloudy
2:00 AM 27.0 °F 19.5 °F 25.3 °F 94% 30.06 in 1.2 mi NNE 6.9 mph - N/A   Scattered Clouds
2:20 AM 27.1 °F 20.7 °F 25.7 °F 94% 30.04 in 0.8 mi NNE 5.8 mph - N/A   Mostly Cloudy
2:40 AM 27.3 °F 19.9 °F 26.1 °F 95% 30.01 in 0.8 mi NNE 6.9 mph - N/A   Mostly Cloudy
3:00 AM 27.5 °F 20.2 °F 26.6 °F 96% 29.98 in 0.8 mi NNE 6.9 mph - N/A   Unknown
3:20 AM 28.2 °F 18.9 °F 27.1 °F 96% 29.95 in 1.0 mi NNE 10.4 mph 16.1 mph N/A   Unknown
3:40 AM 28.8 °F 20.2 °F 27.5 °F 95% 29.93 in 1.2 mi NNE 9.2 mph - N/A   Unknown
4:00 AM 29.3 °F 20.8 °F 28.0 °F 95% 29.91 in 2.5 mi NNE 9.2 mph 16.1 mph N/A   Clear
4:20 AM 30.2 °F 21.3 °F 28.9 °F 95% 29.88 in 1.0 mi NNE 10.4 mph 16.1 mph N/A   Unknown
4:40 AM 31.1 °F 22.4 °F 30.2 °F 96% 29.85 in 1.8 mi NNE 10.4 mph 17.3 mph N/A   Unknown
5:00 AM 32.0 °F 24.2 °F 31.3 °F 97% 29.84 in 2.5 mi NNE 9.2 mph 19.6 mph N/A   Scattered Clouds
5:20 AM 33.1 °F 24.4 °F 32.0 °F 96% 29.82 in 2.0 mi NNE 11.5 mph 18.4 mph N/A   Scattered Clouds
5:40 AM 33.8 °F 26.4 °F 32.5 °F 95% 29.79 in 1.2 mi North 9.2 mph 19.6 mph N/A   Overcast
6:00 AM 34.0 °F 24.6 °F 32.9 °F 96% 29.78 in 2.5 mi NNE 13.8 mph 21.9 mph N/A   Overcast
6:20 AM 34.2 °F 28.2 °F 32.9 °F 95% 29.76 in 4.0 mi North 6.9 mph 16.1 mph N/A   Overcast
6:40 AM 34.3 °F 25.9 °F 32.9 °F 94% 29.76 in 3.0 mi NNE 11.5 mph 17.3 mph N/A   Overcast
7:00 AM 34.5 °F 26.7 °F 33.1 °F 94% 29.75 in 1.8 mi NNE 10.4 mph 18.4 mph N/A   Overcast
7:20 AM 34.7 °F 28.8 °F 33.3 °F 94% 29.74 in 4.0 mi NNE 6.9 mph - N/A   Overcast
7:40 AM 34.7 °F 26.9 °F 33.4 °F 95% 29.74 in 1.8 mi NNE 10.4 mph 16.1 mph N/A   Overcast
8:00 AM 34.7 °F 26.9 °F 33.4 °F 95% 29.73 in 1.8 mi North 10.4 mph - N/A   Overcast
8:20 AM 34.7 °F 27.5 °F 33.8 °F 97% 29.70 in 2.0 mi North 9.2 mph - N/A   Overcast
8:40 AM 34.9 °F 27.7 °F 34.0 °F 97% 29.68 in 3.0 mi North 9.2 mph 18.4 mph N/A   Overcast
9:00 AM 35.6 °F 28.6 °F 34.3 °F 95% 29.65 in 4.0 mi NNE 9.2 mph 17.3 mph N/A   Overcast
9:20 AM 36.1 °F 28.2 °F 34.7 °F 94% 29.63 in 4.0 mi North 11.5 mph 20.7 mph N/A   Overcast
9:40 AM 36.9 °F 27.8 °F 35.4 °F 95% 29.61 in 3.0 mi NNE 15.0 mph 25.3 mph N/A   Overcast
10:00 AM 37.4 °F 30.3 °F 35.6 °F 93% 29.59 in 3.0 mi NNE 10.4 mph 20.7 mph N/A   Overcast
10:20 AM 37.6 °F 30.5 °F 36.0 °F 94% 29.58 in 2.5 mi NNE 10.4 mph 23.0 mph N/A   Overcast
10:40 AM 37.6 °F 29.6 °F 36.1 °F 95% 29.55 in 2.0 mi North 12.7 mph 20.7 mph N/A   Overcast
11:00 AM 37.4 °F 30.3 °F 36.1 °F 95% 29.54 in 4.0 mi North 10.4 mph - N/A   Overcast
11:20 AM 37.4 °F 30.8 °F 36.0 °F 95% 29.53 in 5.0 mi North 9.2 mph - N/A   Overcast
11:40 AM 37.8 °F 32.5 °F 36.3 °F 95% 29.52 in 4.0 mi NNE 6.9 mph 17.3 mph N/A   Overcast
12:00 PM 37.9 °F 33.5 °F 36.5 °F 95% 29.51 in 4.0 mi North 5.8 mph - N/A   Overcast
12:20 PM 38.1 °F 32.3 °F 36.5 °F 94% 29.49 in 3.0 mi North 8.1 mph - N/A   Overcast
12:40 PM 38.1 °F 31.7 °F 36.5 °F 94% 29.47 in 3.0 mi North 9.2 mph - N/A   Overcast
1:00 PM 37.9 °F 31.5 °F 36.1 °F 93% 29.45 in 2.5 mi North 9.2 mph 19.6 mph N/A   Overcast
1:20 PM 37.8 °F 30.7 °F 36.1 °F 94% 29.42 in 2.5 mi North 10.4 mph 17.3 mph N/A   Overcast
1:40 PM 37.8 °F 33.3 °F 36.3 °F 95% 29.40 in 3.0 mi North 5.8 mph - N/A   Overcast
2:00 PM 37.8 °F 33.3 °F 36.3 °F 95% 29.40 in 3.0 mi North 5.8 mph - N/A   Overcast
2:40 PM 37.8 °F 31.8 °F 36.5 °F 95% 29.37 in 2.5 mi NNW 8.1 mph - N/A   Overcast
3:00 PM 37.4 °F 29.8 °F 36.1 °F 95% 29.35 in 3.0 mi North 11.5 mph - N/A   Overcast
3:20 PM 37.4 °F 30.3 °F 36.0 °F 95% 29.33 in 3.0 mi North 10.4 mph 18.4 mph N/A   Overcast
3:40 PM 36.9 °F 30.7 °F 35.6 °F 95% 29.34 in 3.0 mi North 8.1 mph - N/A   Overcast
4:00 PM 36.5 °F 28.7 °F 35.1 °F 95% 29.32 in 2.5 mi North 11.5 mph 17.3 mph N/A   Overcast
4:15 PM 36.1 °F 28.7 °F 34.9 °F 95% 29.30 in 2.5 mi North 10.4 mph 18.4 mph N/A   Overcast
4:40 PM 36.3 °F 28.9 °F 34.9 °F 95% 29.30 in 5.0 mi North 10.4 mph 20.7 mph N/A   Overcast
5:00 PM 36.5 °F 32.7 °F 34.7 °F 93% 29.32 in 5.0 mi WNW 4.6 mph - N/A   Overcast
5:20 PM 36.5 °F 32.7 °F 34.7 °F 93% 29.32 in 4.0 mi NW 4.6 mph - N/A   Overcast
5:40 PM 35.8 °F 30.9 °F 34.2 °F 94% 29.31 in 3.0 mi NW 5.8 mph - N/A   Overcast
6:00 PM 34.7 °F 30.6 °F 33.6 °F 96% 29.32 in 1.8 mi NW 4.6 mph - N/A   Overcast
6:20 PM 34.3 °F 28.4 °F 33.8 °F 98% 29.31 in 1.5 mi NNW 6.9 mph - N/A   Overcast
6:40 PM 34.2 °F 28.2 °F 33.8 °F 99% 29.30 in 1.2 mi NW 6.9 mph - N/A   Overcast
7:00 PM 34.2 °F 28.2 °F 33.8 °F 99% 29.29 in 1.0 mi NW 6.9 mph - N/A   Overcast
7:20 PM 34.2 °F 29.0 °F 33.8 °F 99% 29.30 in 1.2 mi NW 5.8 mph - N/A   Overcast
7:40 PM 34.0 °F 29.8 °F 33.8 °F 99% 29.30 in 0.8 mi NW 4.6 mph - N/A   Overcast
8:00 PM 34.2 °F 29.0 °F 33.8 °F 99% 29.30 in 1.2 mi NW 5.8 mph - N/A   Overcast
8:20 PM 34.7 °F 29.6 °F 34.2 °F 98% 29.30 in 1.8 mi NW 5.8 mph - N/A   Overcast
8:40 PM 34.7 °F 30.6 °F 34.0 °F 97% 29.30 in 2.5 mi WNW 4.6 mph - N/A   Overcast
9:00 PM 34.9 °F 28.3 °F 34.3 °F 98% 29.30 in 7.0 mi WNW 8.1 mph - N/A   Overcast
9:20 PM 35.2 °F 28.8 °F 34.2 °F 96% 29.31 in 5.0 mi NW 8.1 mph - N/A   Overcast
9:40 PM 35.8 °F 30.1 °F 34.5 °F 95% 29.32 in 7.0 mi WNW 6.9 mph - N/A   Overcast
10:00 PM 36.0 °F 28.0 °F 34.3 °F 94% 29.32 in 7.0 mi WNW 11.5 mph 16.1 mph N/A   Overcast
10:20 PM 36.5 °F 30.3 °F 34.0 °F 91% 29.33 in 10.0 mi WNW 8.1 mph - N/A   Overcast
10:40 PM 36.9 °F 30.7 °F 33.4 °F 87% 29.34 in 10.0 mi WNW 8.1 mph 18.4 mph N/A   Overcast
11:00 PM 36.7 °F 29.4 °F 33.8 °F 89% 29.34 in 10.0 mi WNW 10.4 mph 18.4 mph N/A   Overcast
11:20 PM 36.5 °F 27.8 °F 33.3 °F 88% 29.34 in 10.0 mi WNW 13.8 mph 23.0 mph N/A   Overcast
11:40 PM 37.2 °F 31.2 °F 32.2 °F 82% 29.34 in 10.0 mi WNW 8.1 mph 20.7 mph N/A   Mostly Cloudy